Theta_e
345 352 360 360 360 360 359 359 359 359 361 362 360 359 359 360 360 359 358 358 359 357 357 357 356 357 356 356 356 356 356 356 356 357 358 358 353 350 351 353 354 352 352
347 352 360 360 358 359 359 358 359 359 360 360 358 358 358 358 357 357 357 358 359 357 356 356 355 355 355 355 355 355 355 356 356 356 355 355 359 353 352 353 353 355 352
347 353 356 361 360 359 359 359 359 359 359 359 358 358 358 358 357 358 359 358 358 355 354 354 354 354 354 354 354 354 355 355 355 356 356 352 346 353 350 354 355 355 359
349 352 354 360 360 359 358 359 360 359 359 359 359 358 358 357 357 357 357 355 353 349 347 346 345 345 346 346 347 349 351 352 354 355 350 349 349 354 351 353 353 354 358
349 352 356 358 359 357 356 359 360 360 360 360 359 357 354 355 355 354 353 351 347 345 344 343 342 341 341 341 341 342 343 345 347 352 347 347 350 352 352 353 355 356 355
348 350 357 360 360 359 358 360 360 358 357 358 354 354 353 352 353 350 349 347 343 341 339 338 337 336 336 337 338 339 339 338 340 335 341 346 347 351 352 354 356 356 356
347 351 354 360 361 361 358 356 356 355 353 352 353 351 349 350 349 347 345 342 339 338 337 336 335 334 333 333 334 335 335 335 328 327 333 338 343 343 345 350 353 355 355
348 350 353 360 358 356 356 356 355 353 350 349 348 347 347 348 347 344 341 338 338 337 336 335 335 334 333 332 331 331 331 331 325 323 326 329 337 336 337 340 344 347 350
350 351 352 352 350 355 354 353 352 349 348 347 347 346 345 343 343 341 340 338 337 336 335 334 333 333 333 332 331 331 332 332 327 323 323 324 334 331 333 335 338 342 347
349 351 352 346 342 342 343 350 349 348 347 346 344 342 343 341 340 339 340 336 335 334 334 333 332 332 332 331 329 329 329 331 325 323 323 323 327 329 331 333 334 337 342
348 352 349 343 340 338 339 341 345 343 342 342 337 336 338 332 332 333 334 334 334 332 330 329 328 329 330 335 336 334 331 323 322 322 322 332 326 328 330 331 333 335 338
347 351 345 343 337 336 334 336 336 334 334 335 335 335 332 335 332 331 334 331 330 329 326 328 330 331 329 322 322 327 321 322 321 321 322 330 325 327 330 330 330 334 336
349 347 339 340 340 337 337 337 335 335 336 336 336 334 335 334 333 331 329 328 328 330 324 326 325 323 323 322 321 320 320 321 321 321 324 331 326 326 327 328 329 330 333
345 337 336 340 342 342 337 336 336 334 335 334 335 335 336 332 332 331 327 326 326 325 325 325 323 324 323 322 320 319 320 321 321 322 324 330 328 325 326 328 329 329 330
337 334 336 339 340 342 340 339 339 337 335 334 336 334 332 329 329 328 327 326 326 326 325 324 323 323 322 321 319 320 320 321 321 321 321 329 328 324 325 326 328 328 329
335 334 335 334 337 339 338 338 338 337 337 335 333 331 329 328 329 326 327 326 325 325 325 324 323 321 320 320 319 320 320 321 321 321 321 323 328 325 324 325 326 328 329
335 334 332 331 332 336 336 335 334 333 332 331 330 331 328 330 330 330 326 325 325 325 325 324 323 321 319 319 318 319 320 321 321 322 323 323 324 328 325 324 325 326 328
332 330 331 330 330 332 333 334 332 329 329 327 325 327 328 328 328 329 325 325 325 324 323 322 320 318 317 317 317 317 318 319 320 322 322 323 323 323 325 326 324 326 327
332 329 328 330 327 328 330 329 331 331 329 328 325 325 328 327 327 328 325 324 326 323 322 320 319 318 316 315 315 315 317 318 319 320 322 323 322 322 322 326 325 325 326
331 331 329 327 328 330 332 333 331 328 325 327 325 325 328 327 327 327 324 324 323 320 318 317 317 317 315 312 310 312 314 316 318 319 319 319 320 322 322 321 323 324 328
331 328 327 327 331 332 327 325 324 325 326 324 325 327 328 325 325 325 322 322 321 319 318 316 315 312 312 313 309 311 312 317 318 319 318 318 319 318 320 322 323 323 324
328 327 328 328 325 324 324 327 327 326 324 324 323 324 325 324 322 321 321 320 319 316 317 314 313 311 311 311 305 304 303 310 316 316 316 317 319 317 318 321 324 325 328
327 328 327 327 326 326 325 327 326 325 322 321 322 322 321 321 320 321 321 319 318 315 311 313 312 312 309 312 310 305 301 301 307 312 315 315 315 315 318 320 323 325 328
325 327 324 324 323 324 326 325 324 322 320 321 321 321 320 322 321 320 318 318 317 314 312 313 314 313 313 310 309 310 311 310 303 303 312 313 314 315 317 318 322 325 326
323 319 322 321 316 317 318 321 320 317 322 322 321 321 321 321 319 316 316 317 316 314 314 315 315 314 311 309 308 309 309 310 312 307 304 306 311 313 316 317 325 324 320
314 314 316 314 313 315 315 316 318 320 320 318 318 315 314 315 316 316 317 317 317 315 316 315 316 315 313 312 311 311 309 307 306 306 306 306 306 311 316 320 321 317 316
Wind_Speed
9 13 8 9 11 12 12 11 13 14 14 15 16 15 14 13 13 13 12 11 10 11 11 10 10 10 10 9 9 9 9 8 8 8 8 7 3 3 4 4 5 11 8
11 13 9 9 11 12 12 13 12 12 13 14 15 14 14 14 13 13 12 11 11 12 12 12 11 11 10 10 10 9 8 8 8 8 8 12 10 4 3 6 7 8 1
11 12 13 10 11 12 12 13 13 13 14 14 14 14 14 13 14 13 12 12 12 13 13 13 13 13 13 12 12 11 10 9 8 9 11 12 4 7 1 6 8 10 9
12 10 12 11 12 13 13 13 12 12 14 13 14 15 15 14 13 14 14 16 16 17 17 17 16 15 15 15 14 13 12 11 10 10 13 6 8 11 4 6 9 10 10
11 10 13 11 11 13 14 13 13 13 13 15 16 16 16 16 16 17 16 16 16 17 16 16 15 15 14 14 14 13 14 14 14 14 8 9 8 9 3 7 12 12 12
12 12 13 11 11 12 14 13 13 15 15 16 17 16 16 16 16 16 16 16 16 16 16 15 15 14 14 13 13 14 14 15 19 12 8 6 9 14 11 11 11 12 12
13 14 14 12 11 12 14 15 14 16 16 16 16 17 17 16 16 15 15 15 16 15 14 14 13 13 13 13 13 13 14 16 14 12 10 9 6 12 11 12 13 11 11
13 14 14 12 11 12 14 15 16 15 15 16 16 16 16 15 15 15 14 14 14 13 12 11 11 11 11 11 11 12 13 14 14 13 10 10 11 9 11 14 14 14 13
12 13 14 14 13 13 13 14 15 15 15 16 15 15 15 15 13 12 12 12 12 11 10 10 11 11 11 11 11 13 15 16 14 9 11 9 11 11 14 15 15 15 14
12 12 13 14 15 15 14 13 15 15 14 14 14 13 13 12 11 8 11 10 9 9 10 10 11 12 12 12 8 9 14 22 13 12 10 8 9 12 17 18 17 17 16
11 11 12 13 12 13 14 12 13 14 14 14 12 6 9 6 5 8 9 7 9 9 7 9 9 12 13 14 8 8 17 9 12 10 8 9 10 14 18 19 19 19 18
13 11 11 11 10 11 10 12 10 10 6 5 6 4 5 6 7 5 5 3 3 5 4 7 7 12 11 12 10 12 9 13 12 11 9 6 9 16 20 21 20 20 18
14 11 12 11 9 10 9 5 5 4 5 5 5 4 6 3 4 4 5 5 6 6 8 10 10 10 15 13 12 12 14 14 10 10 12 11 14 18 21 22 23 22 21
13 11 11 9 5 1 6 5 4 4 4 3 4 3 2 1 3 4 5 5 6 7 9 9 9 12 15 16 17 17 16 14 10 10 13 16 15 19 21 21 22 21 22
13 12 8 6 5 5 4 3 2 2 1 3 1 2 3 4 5 5 5 6 6 8 9 10 11 12 15 17 17 17 17 17 17 11 10 18 17 18 20 21 21 22 22
14 13 11 10 7 5 3 1 2 3 3 2 3 6 5 5 5 5 6 7 7 8 9 10 11 12 13 15 17 16 17 16 16 16 12 13 16 16 17 18 20 21 21
15 15 13 12 4 5 6 4 4 4 4 4 4 4 7 8 7 9 8 8 8 9 11 10 11 13 13 14 16 14 14 15 14 15 13 12 12 13 14 14 16 17 19
15 10 10 15 8 8 7 6 6 7 9 10 8 8 7 8 8 9 8 8 9 10 9 10 12 13 14 15 13 13 13 14 17 15 12 10 10 11 11 12 11 16 19
11 10 14 13 12 9 8 5 4 4 4 6 8 8 7 9 9 8 8 8 10 10 10 11 12 14 14 13 12 13 13 12 14 12 12 11 14 9 9 14 13 15 19
12 13 12 10 11 7 4 3 3 4 2 4 7 6 9 9 9 8 8 7 9 10 10 11 14 13 14 9 10 12 13 13 12 9 10 11 10 8 8 9 11 12 14
15 13 10 10 6 3 5 3 3 3 6 6 7 5 7 7 9 8 8 10 10 9 9 9 12 12 12 7 9 11 13 14 8 3 10 9 8 8 10 12 10 10 11
13 11 10 8 5 4 2 1 3 4 5 7 8 3 6 7 7 8 9 10 11 11 11 9 10 10 11 8 6 8 7 10 1 12 9 7 6 10 12 12 12 13 12
15 14 10 6 4 1 4 4 7 6 5 6 5 5 4 8 7 9 10 11 11 10 7 8 9 11 9 10 4 2 4 4 13 9 8 6 8 11 11 14 14 13 13
11 7 4 2 4 4 6 6 9 8 8 6 6 6 8 8 9 9 10 10 8 7 6 7 7 9 9 10 8 3 7 9 4 10 8 6 9 9 9 11 11 12 12
8 9 6 6 9 7 5 5 6 5 8 6 5 8 10 10 9 7 6 7 6 6 6 8 9 10 8 7 9 10 10 9 7 6 13 12 9 8 11 10 10 10 10
5 4 4 6 4 4 1 2 4 6 8 8 9 10 8 8 5 1 7 6 6 7 8 8 9 10 10 9 8 8 7 7 8 6 11 12 12 12 11 7 7 6 6
Wind_Direction
117 111 122 119 121 125 121 116 110 106 99 98 100 101 97 91 89 88 82 76 72 68 59 54 49 40 32 27 23 16 6 359 354 346 339 328 314 317 309 290 265 244 118
126 118 126 133 133 135 128 123 113 105 100 101 102 100 96 95 92 87 82 77 72 64 59 52 44 38 31 23 16 9 1 350 340 330 316 276 228 181 299 291 279 291 52
123 127 143 139 138 133 128 121 119 114 111 109 106 101 95 90 88 83 78 73 69 63 57 52 49 43 35 28 19 9 358 346 331 312 291 265 286 140 288 297 286 272 274
134 136 135 139 136 134 129 125 118 115 111 106 103 99 94 88 84 82 80 75 71 67 62 58 53 47 42 36 30 21 10 352 326 294 267 280 290 140 174 282 280 273 272
135 137 119 137 136 135 132 125 121 114 108 108 103 97 95 91 89 84 80 75 70 64 59 55 48 40 35 29 24 19 7 356 324 281 311 317 333 61 38 302 277 255 250
142 144 129 136 138 131 126 118 115 110 110 110 105 101 96 90 89 82 78 73 69 65 59 51 43 35 27 23 15 10 3 350 318 324 324 311 274 36 3 310 287 281 282
145 132 141 136 137 132 129 126 120 115 112 111 107 99 91 89 88 85 80 73 70 62 55 47 39 32 23 16 11 5 357 347 324 305 308 306 334 31 347 319 311 302 294
144 140 137 135 132 135 130 129 127 119 111 105 98 96 95 96 91 88 82 75 69 61 51 38 30 20 13 4 0 353 344 338 313 305 303 297 54 17 332 317 313 313 306
145 143 149 143 134 127 129 124 117 112 109 104 101 98 95 94 95 92 81 72 60 51 41 28 17 4 355 343 345 338 332 317 298 299 298 286 43 352 317 305 303 298 297
157 158 150 141 147 145 138 118 116 111 107 103 102 103 111 111 117 110 122 69 58 42 31 22 7 355 334 311 293 308 315 299 274 309 294 294 15 329 306 301 296 293 292
165 160 152 153 158 142 132 118 112 107 107 113 114 129 186 73 82 96 70 59 44 31 25 10 357 334 310 288 266 293 297 303 315 303 293 31 342 316 304 301 297 291 285
169 162 162 152 158 139 132 153 133 148 102 99 99 92 75 54 42 34 92 97 98 6 274 349 331 302 329 333 325 314 316 315 305 299 293 358 315 298 298 301 297 291 286
173 168 166 157 171 161 129 149 151 139 141 129 114 77 66 41 19 25 4 12 350 32 359 348 343 352 340 333 323 315 314 308 303 298 297 315 303 294 294 295 293 290 287
164 158 149 145 139 62 137 180 142 145 162 170 81 79 84 51 48 2 12 351 348 359 348 347 339 341 331 325 319 314 310 306 304 304 297 297 300 298 296 295 292 291 288
161 145 131 122 161 150 205 110 172 149 184 83 127 57 11 9 12 3 10 346 342 345 345 339 334 335 328 324 320 317 311 307 301 297 298 301 296 298 295 294 293 290 289
143 120 96 70 38 39 70 53 70 26 73 338 356 19 19 353 354 346 342 346 345 346 342 330 337 327 324 322 317 316 308 305 304 300 300 301 292 285 288 288 290 291 291
125 130 128 100 82 87 74 52 31 17 6 345 359 18 359 356 353 340 346 335 342 337 323 324 327 323 322 319 315 308 305 304 303 302 303 296 300 293 278 288 286 293 288
144 134 112 118 119 86 64 42 34 28 357 5 355 346 349 339 341 327 334 332 355 320 320 324 322 321 319 320 315 318 315 314 303 302 288 313 304 305 303 281 317 301 294
137 108 114 112 110 95 91 86 66 34 8 344 327 319 341 320 334 331 329 334 338 312 315 321 326 318 318 317 334 316 300 301 298 297 308 303 299 320 336 318 319 294 282
124 112 107 96 115 127 144 122 40 32 38 1 288 290 314 315 327 333 318 329 311 319 327 334 313 321 310 331 317 307 304 298 298 330 301 304 333 346 334 317 302 302 297
115 109 114 113 123 23 27 12 338 351 312 278 255 288 304 330 338 324 327 318 321 320 329 324 318 316 308 330 309 322 312 279 264 285 319 331 336 318 308 306 302 321 307
118 131 132 95 64 65 77 356 296 293 295 296 296 310 293 321 314 313 333 326 335 316 324 332 310 320 305 335 330 309 311 319 130 337 299 325 356 311 315 312 312 305 314
125 104 99 105 125 183 306 273 263 264 260 252 260 299 335 302 318 331 331 327 319 310 327 324 316 311 316 313 334 288 306 310 324 303 315 314 347 317 336 327 317 331 338
116 90 111 176 130 240 244 278 271 283 285 298 295 308 306 311 323 327 332 322 330 325 315 311 325 327 312 317 322 282 266 270 304 314 319 341 332 315 341 316 349 346 344
44 40 28 55 37 23 10 315 308 329 289 283 293 303 297 284 303 333 317 323 329 313 329 316 322 321 320 317 317 329 314 314 295 297 316 328 329 341 327 317 355 5 353
53 94 145 97 72 56 38 290 299 309 313 312 315 305 305 313 319 6 315 308 308 323 326 325 326 325 335 321 323 307 304 312 309 307 308 321 328 331 322 21 21 22 19